Location: Fauquembergues
(50.6005°N, 2.0987°E)
Time: 04:25:06
(UTC+00:00)

Cosmos 1184 Rocket - Pass Details

Date: 14 July 2020
Orbit: 408 x 421 km, 81.2° (Epoch: 06 August)

Event Time Altitude Azimuth Distance (km) Brightness Sun altitude
Exits shadow 00:49:50 38° 146° (SSE) 655 3.3 -16.8°
Maximum altitude 00:50:41 50° 98° (E) 537 3.2 -16.8°
Drops below altitude 10° 00:53:53 10° 22° (NNE) 1,507 6.9 -16.7°
Sets 00:55:57 0° 17° (NNE) 2,379 8.4 -16.6°
